User: anonymous   Login
Location: Cueva de Ratón
(10.1013°N, 67.6606°W)
Time: 12:57:45
(UTC+00:00)
Language:

Cosmos 1812 Rocket - Orbit

View from above orbital plane
View from above orbital plane
View from above satellite
View from above satellite

Ground track
Ground track

The orbit data is extracted from the following two-line orbital elements,

1 17296U 87003B   24104.00753615  .00000675  00000-0  77491-4 0  9991
2 17296  82.5318 213.6198 0017096 284.5275  75.4044 14.84309212 12539
Epoch (UTC): 13 April 2024 00:10:51
Eccentricity: 0.0017096
inclination: 82.5318°
perigee height: 604 km
apogee height: 628 km
right ascension of ascending node: 213.6198°
argument of perigee: 284.5275°
revolutions per day: 14.84309212
mean anomaly at epoch: 75.4044°
orbit number at epoch: 1253

The dashed part of the orbit path shows where the satellite is in the earth's shadow,  

DLR